This is the latest recevied weather packets stored in our database for station/object KQ7A. If no packets are shown the sender has not sent any weather packets the latest 10 day(s).
| Time | Temp. | Humidity | Pressure | Rain* | Wind** | Luminosity | Snow |
|---|---|---|---|---|---|---|---|
| 1777722622 | 7.78° C | 56% | 1016.9 hPa | 0 mm | - | 0 W/m² | - |
| 1777722319 | 7.78° C | 57% | 1016.9 hPa | 0 mm | - | 0 W/m² | - |
| 1777722015 | 7.78° C | 61% | 1016.8 hPa | 0 mm | - | 0 W/m² | - |
| 1777721713 | 7.78° C | 58% | 1016.9 hPa | 0 mm | - | 0 W/m² | - |
| 1777721412 | 7.22° C | 60% | 1016.9 hPa | 0 mm | - | 0 W/m² | - |
| 1777721109 | 7.22° C | 58% | 1016.8 hPa | 0 mm | - | 0 W/m² | - |
| 1777720806 | 7.78° C | 58% | 1017 hPa | 0 mm | - | 0 W/m² | - |
| 1777720504 | 7.78° C | 58% | 1016.9 hPa | 0 mm | - | 0 W/m² | - |
| 1777720201 | 7.78° C | 60% | 1016.9 hPa | 0 mm | - | 0 W/m² | - |
| 1777719898 | 8.33° C | 55% | 1016.9 hPa | 0 mm | - | 0 W/m² | - |
| 1777719596 | 8.33° C | 56% | 1016.6 hPa | 0 mm | - | 0 W/m² | - |
| 1777719293 | 7.78° C | 58% | 1016.9 hPa | 0 mm | - | 0 W/m² | - |
| 1777718991 | 7.78° C | 58% | 1016.7 hPa | 0 mm | - | 0 W/m² | - |
| 1777718688 | 8.33° C | 55% | 1016.8 hPa | 0 mm | - | 0 W/m² | - |
| 1777718385 | 8.89° C | 53% | 1016.7 hPa | 0 mm | - | 0 W/m² | - |
| 1777718082 | 8.89° C | 52% | 1016.7 hPa | 0 mm | - | 0 W/m² | - |
| 1777717779 | 8.33° C | 52% | 1016.8 hPa | 0 mm | - | 0 W/m² | - |
| 1777717476 | 7.78° C | 55% | 1016.8 hPa | 0 mm | - | 0 W/m² | - |
| 1777717173 | 8.33° C | 55% | 1016.9 hPa | 0 mm | - | 0 W/m² | - |
| 1777716871 | 7.78° C | 56% | 1016.7 hPa | 0 mm | - | 0 W/m² | - |
| 1777716569 | 7.22° C | 61% | 1016.9 hPa | 0 mm | - | 0 W/m² | - |
| 1777716268 | 7.78° C | 62% | 1016.8 hPa | 0 mm | - | 0 W/m² | - |
| 1777715966 | 8.33° C | 55% | 1016.8 hPa | 0 mm | - | 0 W/m² | - |
| 1777715663 | 8.33° C | 55% | 1016.7 hPa | 0 mm | - | 0 W/m² | - |
| 1777715361 | 8.33° C | 55% | 1016.8 hPa | 0 mm | - | 0 W/m² | - |
* Rain latest hour (hover to see other rain measurements)
** Current wind speed in m/s (hover to see current wind gust speed)